This demonstration page uses our WeatherBlox Daily Observations layout. Learn more.

Left ArrowRight Arrow

Hourly Observations for July 3, 2021

Temp ( °F °C ) Dew Point ( °F °C ) Humidity (%) Winds ( mph kmh ) Pressure ( in mb ) Visibility ( mi km ) Precip ( " mm )
12:51 am 00:51 Clear 76 24.4 65 18.3 69 69 ESE 3 6 29.88 1012 10 16 N/A
1:51 am 01:51 Clear 74 23.3 66 18.9 76 76 N N/A 29.85 1011 10 16 N/A
2:51 am 02:51 Clear 75 23.9 66 18.9 74 74 SSE 6 9 29.85 1011 10 16 N/A
3:51 am 03:51 Clear 75 23.9 64 17.8 69 69 ESE 7 11 29.86 1011 10 16 N/A
4:51 am 04:51 Clear 76 24.4 64 17.8 67 67 ESE 6 9 29.87 1012 10 16 N/A
5:51 am 05:51 Mostly Sunny 76 24.4 64 17.8 67 67 E 5 7 29.91 1013 10 16 N/A
6:51 am 06:51 Mostly Sunny 77 25 64 17.8 64 64 ESE 7 11 29.93 1014 10 16 N/A
7:51 am 07:51 Partly Cloudy 78 25.6 64 17.8 62 62 ESE 5 7 29.94 1014 10 16 N/A
8:51 am 08:51 Mostly Sunny 81 27.2 63 17.2 54 54 ESE 7 11 29.92 1013 10 16 N/A
9:51 am 09:51 Mostly Cloudy 82 27.8 63 17.2 53 53 SE 7 11 29.91 1013 10 16 N/A
10:51 am 10:51 Mostly Sunny 86 30 62 16.7 45 45 ENE 7 11 29.89 1012 10 16 N/A
11:51 am 11:51 Sunny 88 31.1 61 16.1 40 40 VRB 5 7 29.87 1011 10 16 N/A
12:51 pm 12:51 Sunny 92 33.3 60 15.6 34 34 VRB 7 11 29.83 1010 10 16 N/A
1:51 pm 13:51 Mostly Cloudy 93 33.9 59 15 32 32 N N/A 29.79 1009 10 16 N/A
2:51 pm 14:51 Partly Cloudy 95 35 59 15 30 30 VRB 3 6 29.75 1008 10 16 N/A
3:51 pm 15:51 Mostly Cloudy 97 36.1 58 14.4 27 27 VRB 6 9 29.73 1007 10 16 N/A
4:46 pm 16:46 Mostly Cloudy with Nearby Thunderstorms 99 37 57 14 25 25 ESE 8 13 29.59 1002 10 16 N/A
4:51 pm 16:51 Mostly Cloudy with Nearby Thunderstorms 98 36.7 59 15 27 27 undefined N/A 29.72 1007 10 16 N/A
5:40 pm 17:40 Mostly Cloudy 89 31.7 61 16.1 39 39 ESE 7 11 29.67 1005 10 16 N/A
5:51 pm 17:51 Mostly Cloudy 89 31.7 61 16.1 39 39 SSW 7 11 29.77 1008 10 16 N/A
6:00 pm 18:00 Mostly Cloudy with Nearby Thunderstorms 86 30 64 17.8 48 48 SSW 6 9 29.70 1006 10 16 N/A
6:22 pm 18:22 Partly Cloudy 86 30 64 17.8 48 48 SSE 6 9 29.71 1006 10 16 N/A
6:51 pm 18:51 Mostly Cloudy 86 30 63 17.2 46 46 SSE 9 15 29.80 1009 10 16 N/A
7:51 pm 19:51 Partly Cloudy 83 28.3 64 17.8 53 53 E 7 11 29.82 1010 10 16 N/A
8:51 pm 20:51 Partly Cloudy 83 28.3 63 17.2 51 51 NE 3 6 29.84 1011 10 16 N/A
9:51 pm 21:51 Partly Cloudy 81 27.2 66 18.9 61 61 SSE 14 22 29.87 1012 10 16 N/A
10:51 pm 22:51 Partly Cloudy with Light Rain 76 24.4 70 21.1 82 82 E 8 13 29.90 1012 10 16 0.00 0.00
11:51 pm 23:51 Mostly Clear 75 23.9 69 20.6 82 82 SE 3 6 29.88 1012 10 16 0.02 0.51

Powered by AerisWeather